CW8248 Weather Reports


Display with metric or nautical units.
time (UTC)temp
F
wind
direction
speed
MPH
gust
MPH
rain 1hr
in
rain 24hr
in
rain mn
in
humidity
%
barometer
mb
20260509223520 79 141 4.0 7.0 0.00 0.00 0.00 21 1016.5
20260509223021 81 163 5.0 7.0 0.00 0.00 0.00 24 1016.5
20260509222518 80 159 4.0 7.0 0.00 0.00 0.00 28 1016.6
20260509222021 79 158 4.0 7.0 0.00 0.00 0.00 24 1016.7
20260509221517 79 147 5.0 8.0 0.00 0.00 0.00 26 1016.9
20260509221016 79 149 5.0 9.0 0.00 0.00 0.00 24 1016.9
20260509220515 79 152 6.0 10.0 0.00 0.00 0.00 23 1017.0
20260509220015 79 168 6.0 10.0 0.00 0.00 0.00 23 1017.0
20260509215515 78 157 6.0 10.0 0.00 0.00 0.00 21 1017.1
20260509215018 78 161 5.0 8.0 0.00 0.00 0.00 23 1017.2
20260509214513 78 154 5.0 9.0 0.00 0.00 0.00 26 1017.2
20260509214013 78 137 6.0 9.0 0.00 0.00 0.00 26 1017.3
20260509213513 78 167 5.0 9.0 0.00 0.00 0.00 26 1017.4
20260509213012 78 152 4.0 10.0 0.00 0.00 0.00 28 1017.4
20260509212511 79 148 6.0 10.0 0.00 0.00 0.00 27 1017.5
20260509212010 79 151 5.0 8.0 0.00 0.00 0.00 30 1017.6
20260509211515 79 152 4.0 7.0 0.00 0.00 0.00 28 1017.8
20260509211008 78 155 4.0 7.0 0.00 0.00 0.00 27 1017.9
20260509210507 79 164 3.0 8.0 0.00 0.00 0.00 28 1018.0
20260509210007 78 179 5.0 7.0 0.00 0.00 0.00 28 1018.0
20260509205504 81 173 3.0 7.0 0.00 0.00 0.00 29 1018.1
20260509205003 78 156 4.0 7.0 0.00 0.00 0.00 31 1018.2
20260509204503 77 153 4.0 8.0 0.00 0.00 0.00 30 1018.4
20260509204005 76 158 5.0 9.0 0.00 0.00 0.00 28 1018.3
20260509203502 76 148 4.0 9.0 0.00 0.00 0.00 27 1018.4
20260509203005 75 160 4.0 9.0 0.00 0.00 0.00 32 1018.4
20260509202501 76 150 3.0 8.0 0.00 0.00 0.00 25 1018.5
20260509202101 76 158 4.0 8.0 0.00 0.00 0.00 35 1018.5
20260509201600 76 163 3.0 6.0 0.00 0.00 0.00 31 1018.7
20260509201059 75 152 3.0 6.0 0.00 0.00 0.00 32 1018.7
20260509200559 76 186 3.0 6.0 0.00 0.00 0.00 37 1018.8
20260509200058 74 177 3.0 7.0 0.00 0.00 0.00 34 1018.9
20260509195557 75 153 4.0 7.0 0.00 0.00 0.00 31 1019.0
20260509195056 77 149 4.0 7.0 0.00 0.00 0.00 29 1019.2
20260509194555 75 154 4.0 6.0 0.00 0.00 0.00 28 1019.3
20260509194054 75 167 4.0 6.0 0.00 0.00 0.00 37 1019.3
20260509193553 75 165 3.0 6.0 0.00 0.00 0.00 39 1019.4
20260509193051 75 175 3.0 6.0 0.00 0.00 0.00 39 1019.5
20260509192553 73 186 3.0 4.0 0.00 0.00 0.00 38 1019.6
20260509192049 72 181 1.0 5.0 0.00 0.00 0.00 40 1019.6
20260509191549 73 178 3.0 5.0 0.00 0.00 0.00 44 1019.6
20260509191047 72 208 2.0 4.0 0.00 0.00 0.00 38 1019.7
20260509190549 72 210 2.0 5.0 0.00 0.00 0.00 40 1019.7
20260509190049 72 186 3.0 5.0 0.00 0.00 0.00 45 1019.7
20260509185545 72 196 3.0 6.0 0.00 0.00 0.00 46 1019.9
20260509185044 71 196 4.0 5.0 0.00 0.00 0.00 45 1020.0
20260509184542 70 177 3.0 5.0 0.00 0.00 0.00 45 1020.0
20260509184041 69 166 3.0 5.0 0.00 0.00 0.00 46 1020.0
20260509183541 70 142 1.0 4.0 0.00 0.00 0.00 38 1020.2
20260509183040 69 196 2.0 4.0 0.00 0.00 0.00 48 1020.3
20260509182540 68 196 1.0 4.0 0.00 0.00 0.00 42 1020.3
20260509182037 68 203 1.0 4.0 0.00 0.00 0.00 51 1020.5
20260509181536 67 209 1.0 4.0 0.00 0.00 0.00 47 1020.6
20260509181036 66 186 2.0 4.0 0.00 0.00 0.00 53 1020.5
20260509180535 66 186 2.0 4.0 0.00 0.00 0.00 46 1020.5
20260509180034 66 186 2.0 5.0 0.00 0.00 0.00 51 1020.5
20260509175533 67 196 3.0 4.0 0.00 0.00 0.00 55 1020.5
20260509175035 66 175 2.0 4.0 0.00 0.00 0.00 53 1020.5
20260509174532 63 171 1.0 4.0 0.00 0.00 0.00 50 1020.5
20260509174030 65 173 2.0 4.0 0.00 0.00 0.00 59 1020.5
20260509173531 64 173 2.0 4.0 0.00 0.00 0.00 53 1020.6
20260509173053 65 168 2.0 5.0 0.00 0.00 0.00 53 1020.6
20260509172529 65 165 2.0 5.0 0.00 0.00 0.00 51 1020.6
20260509172027 63 233 2.0 4.0 0.00 0.00 0.00 53 1020.7
20260509171534 62 238 2.0 4.0 0.00 0.00 0.00 54 1020.8
20260509171026 62 241 2.0 4.0 0.00 0.00 0.00 54 1020.8
20260509170526 62 242 1.0 3.0 0.00 0.00 0.00 54 1020.9
20260509170025 62 242 1.0 4.0 0.00 0.00 0.00 57 1021.0
20260509165523 60 242 2.0 4.0 0.00 0.00 0.00 64 1021.1
20260509165022 59 242 2.0 5.0 0.00 0.00 0.00 62 1021.2
20260509164522 59 242 2.0 5.0 0.00 0.00 0.00 60 1021.3
20260509164022 59 242 3.0 5.0 0.00 0.00 0.00 59 1021.2
20260509163519 59 243 1.0 5.0 0.00 0.00 0.00 59 1021.2
20260509163120 59 243 3.0 5.0 0.00 0.00 0.00 63 1021.3
20260509162522 58 244 2.0 6.0 0.00 0.00 0.00 63 1021.3
20260509162015 57 244 2.0 4.0 0.00 0.00 0.00 62 1021.3
20260509161515 56 244 1.0 5.0 0.00 0.00 0.00 63 1021.3
20260509161014 56 244 2.0 5.0 0.00 0.00 0.00 63 1021.4
20260509160514 56 244 1.0 5.0 0.00 0.00 0.00 63 1021.6
20260509160020 56 244 3.0 5.0 0.00 0.00 0.00 64 1021.6
20260509155511 55 246 2.0 5.0 0.00 0.00 0.00 64 1021.7
20260509155013 55 246 3.0 5.0 0.00 0.00 0.00 68 1021.8
20260509154509 54 246 3.0 4.0 0.00 0.00 0.00 67 1021.8
20260509154008 54 249 2.0 4.0 0.00 0.00 0.00 66 1021.7
20260509153507 54 252 2.0 4.0 0.00 0.00 0.00 69 1021.7
20260509153006 54 252 3.0 4.0 0.00 0.00 0.00 68 1021.7
20260509152505 54 254 3.0 4.0 0.00 0.00 0.00 68 1021.6
20260509152004 53 265 2.0 4.0 0.00 0.00 0.00 69 1021.6
20260509151501 53 360 0.0 3.0 0.00 0.00 0.00 68 1021.6
20260509151100 52 360 0.0 3.0 0.00 0.00 0.00 68 1021.7
20260509150559 51 360 0.0 2.0 0.00 0.00 0.00 69 1021.6
20260509150058 51 360 0.0 2.0 0.00 0.00 0.00 69 1021.7
20260509145556 50 360 0.0 3.0 0.00 0.00 0.00 70 1021.7
20260509145055 49 360 0.0 3.0 0.00 0.00 0.00 71 1021.8
20260509144553 49 360 0.0 3.0 0.00 0.00 0.00 72 1021.8
20260509144054 49 360 0.0 3.0 0.00 0.00 0.00 72 1021.8
20260509143550 48 360 0.0 3.0 0.00 0.00 0.00 73 1021.8
20260509143057 48 360 0.0 2.0 0.00 0.00 0.00 74 1021.8
20260509142548 48 360 0.0 3.0 0.00 0.00 0.00 75 1021.8
20260509142046 48 360 0.0 4.0 0.00 0.00 0.00 75 1021.9
20260509141549 47 358 1.0 4.0 0.00 0.00 0.00 75 1021.8
20260509141047 47 358 1.0 5.0 0.00 0.00 0.00 76 1021.8
20260509140545 46 358 2.0 5.0 0.00 0.00 0.00 77 1021.7
20260509140046 46 358 1.0 4.0 0.00 0.00 0.00 77 1021.7
20260509135547 46 358 1.0 4.0 0.00 0.00 0.00 77 1021.7
20260509135048 46 358 1.0 4.0 0.00 0.00 0.00 77 1021.8
20260509134546 45 358 1.0 3.0 0.00 0.00 0.00 77 1021.8
20260509134045 46 358 0.0 2.0 0.00 0.00 0.00 77 1021.8
20260509133543 46 358 0.0 4.0 0.00 0.00 0.00 78 1021.8
20260509133043 46 358 0.0 2.0 0.00 0.00 0.00 78 1021.9
20260509132543 46 358 0.0 2.0 0.00 0.00 0.00 79 1021.9
20260509132039 45 358 0.0 1.0 0.00 0.00 0.00 79 1021.9
20260509131555 45 358 0.0 2.0 0.00 0.00 0.00 79 1021.8
20260509131038 45 358 0.0 3.0 0.00 0.00 0.00 79 1021.8
20260509130537 45 358 1.0 3.0 0.00 0.00 0.00 79 1021.6
20260509130057 45 358 0.0 2.0 0.00 0.00 0.00 78 1021.4
20260509125535 45 358 0.0 2.0 0.00 0.00 0.00 78 1021.3
20260509125034 46 358 0.0 1.0 0.00 0.00 0.00 77 1021.3
20260509124537 46 358 0.0 1.0 0.00 0.00 0.00 77 1021.3
20260509124034 46 358 0.0 2.0 0.00 0.00 0.00 77 1021.2
20260509123534 46 358 0.0 2.0 0.00 0.00 0.00 77 1021.3
20260509123058 46 358 0.0 2.0 0.00 0.00 0.00 78 1021.2
20260509122533 46 358 0.0 2.0 0.00 0.00 0.00 77 1021.2
20260509122031 46 358 0.0 2.0 0.00 0.00 0.00 77 1021.2
20260509121530 46 358 0.0 2.0 0.00 0.00 0.00 76 1021.2
20260509121030 47 358 0.0 2.0 0.00 0.00 0.00 76 1021.1
20260509120528 48 358 0.0 4.0 0.00 0.00 0.00 76 1021.2
20260509120031 48 358 1.0 4.0 0.00 0.00 0.00 76 1021.2
20260509115525 49 357 0.0 2.0 0.00 0.00 0.00 75 1021.0
20260509115024 49 357 0.0 4.0 0.00 0.00 0.00 74 1021.0
20260509114523 50 357 0.0 4.0 0.00 0.00 0.00 74 1021.0
20260509114023 51 258 0.0 11.0 0.00 0.00 0.00 75 1021.0
20260509113527 51 256 7.0 14.0 0.00 0.00 0.00 75 1020.9
20260509113023 51 229 10.0 14.0 0.00 0.00 0.00 75 1020.8
20260509112521 51 233 9.0 14.0 0.00 0.00 0.00 75 1020.9
20260509112020 51 235 9.0 15.0 0.00 0.00 0.00 75 1020.8
20260509111520 51 236 10.0 15.0 0.00 0.00 0.00 75 1020.7
20260509111019 51 229 8.0 15.0 0.00 0.00 0.00 74 1020.8
20260509110519 52 241 9.0 17.0 0.00 0.00 0.00 74 1020.8
20260509110019 52 231 10.0 17.0 0.00 0.00 0.00 74 1020.7
20260509105516 51 248 8.0 14.0 0.00 0.00 0.00 74 1020.8
20260509105014 51 240 7.0 13.0 0.00 0.00 0.00 73 1020.9
20260509104514 52 232 8.0 13.0 0.00 0.00 0.00 73 1020.8
20260509104012 52 242 6.0 14.0 0.00 0.00 0.00 71 1020.9
20260509103513 52 237 8.0 14.0 0.00 0.00 0.00 71 1020.8
20260509103012 52 261 9.0 15.0 0.00 0.00 0.00 71 1020.9
20260509102512 52 252 8.0 14.0 0.00 0.00 0.00 70 1020.8
20260509102010 52 245 8.0 16.0 0.00 0.00 0.00 71 1020.8
20260509101512 52 240 10.0 16.0 0.00 0.00 0.00 70 1020.8
20260509101008 52 258 6.0 13.0 0.00 0.00 0.00 69 1020.8
20260509100507 53 246 7.0 14.0 0.00 0.00 0.00 69 1020.7
20260509100007 53 245 6.0 14.0 0.00 0.00 0.00 69 1020.7
20260509095507 53 248 7.0 13.0 0.00 0.00 0.00 69 1020.7
20260509095007 53 255 5.0 12.0 0.00 0.00 0.00 68 1020.7
20260509094506 53 261 4.0 8.0 0.00 0.00 0.00 68 1020.7
20260509094007 53 240 4.0 8.0 0.00 0.00 0.00 67 1020.7
20260509093506 53 253 3.0 10.0 0.00 0.00 0.00 67 1020.7
20260509093006 53 256 4.0 10.0 0.00 0.00 0.00 67 1020.8
20260509092504 54 236 5.0 9.0 0.00 0.00 0.00 67 1020.9
20260509092006 54 191 2.0 12.0 0.00 0.00 0.00 68 1020.9
20260509091504 54 250 4.0 12.0 0.00 0.00 0.00 68 1020.9
20260509091004 54 229 6.0 11.0 0.00 0.00 0.00 68 1020.9
20260509090504 54 191 5.0 11.0 0.00 0.00 0.00 68 1021.0
20260509090002 54 259 5.0 12.0 0.00 0.00 0.00 68 1021.0
20260509085501 54 191 5.0 12.0 0.00 0.00 0.00 68 1021.1
20260509085004 53 273 4.0 10.0 0.00 0.00 0.00 68 1021.2
20260509084502 54 271 3.0 10.0 0.00 0.00 0.00 68 1021.2
20260509084100 54 257 5.0 10.0 0.00 0.00 0.00 67 1021.3
20260509083559 54 191 2.0 12.0 0.00 0.00 0.00 66 1021.4
20260509083059 54 262 5.0 12.0 0.00 0.00 0.00 66 1021.4
20260509082559 54 191 2.0 11.0 0.00 0.00 0.00 65 1021.4
20260509082057 54 256 6.0 11.0 0.00 0.00 0.00 67 1021.4
20260509081559 54 240 6.0 10.0 0.00 0.00 0.00 68 1021.4
20260509081056 53 237 7.0 14.0 0.00 0.00 0.00 68 1021.4
20260509080556 54 230 8.0 13.0 0.00 0.00 0.00 68 1021.4
20260509080100 54 203 7.0 13.0 0.00 0.00 0.00 68 1021.4
20260509075555 53 239 9.0 12.0 0.00 0.00 0.00 68 1021.4
20260509075055 53 213 8.0 13.0 0.00 0.00 0.00 68 1021.4
20260509074553 54 217 7.0 13.0 0.00 0.00 0.00 68 1021.4
20260509074051 54 168 3.0 6.0 0.00 0.00 0.00 67 1021.5
20260509073551 53 155 1.0 5.0 0.00 0.00 0.00 66 1021.6
20260509073051 53 335 0.0 3.0 0.00 0.00 0.00 66 1021.5
20260509072551 53 335 0.0 3.0 0.00 0.00 0.00 65 1021.5
20260509072050 53 335 0.0 2.0 0.00 0.00 0.00 65 1021.6
20260509071551 53 300 0.0 2.0 0.00 0.00 0.00 65 1021.6
20260509071048 54 300 0.0 4.0 0.00 0.00 0.00 64 1021.6
20260509070549 54 196 0.0 8.0 0.00 0.00 0.00 65 1021.7
20260509070051 53 273 1.0 8.0 0.00 0.00 0.00 65 1021.7
20260509065546 53 337 0.0 3.0 0.00 0.00 0.00 65 1021.8
20260509065046 53 331 0.0 3.0 0.00 0.00 0.00 66 1021.9
20260509064556 53 311 0.0 3.0 0.00 0.00 0.00 65 1021.9
20260509064046 53 299 0.0 3.0 0.00 0.00 0.00 64 1022.0
20260509063546 54 248 0.0 2.0 0.00 0.00 0.00 64 1022.0
20260509063046 54 224 0.0 1.0 0.00 0.00 0.00 63 1022.0
20260509062550 55 224 0.0 1.0 0.00 0.00 0.00 62 1022.0
20260509062045 55 224 0.0 1.0 0.00 0.00 0.00 61 1022.0
20260509061556 55 224 0.0 2.0 0.00 0.00 0.00 61 1022.0
20260509061044 55 224 0.0 2.0 0.00 0.00 0.00 60 1021.9
20260509060543 56 224 0.0 2.0 0.00 0.00 0.00 59 1021.9
20260509060044 56 224 0.0 2.0 0.00 0.00 0.00 58 1021.9
20260509055543 56 224 0.0 3.0 0.00 0.00 0.00 57 1021.8
20260509055042 57 224 0.0 3.0 0.00 0.00 0.00 57 1021.8
20260509054547 58 238 0.0 3.0 0.00 0.00 0.00 54 1021.7
20260509054041 57 245 0.0 5.0 0.00 0.00 0.00 55 1021.7
20260509053541 58 245 0.0 5.0 0.00 0.00 0.00 54 1021.7
20260509053040 58 259 0.0 3.0 0.00 0.00 0.00 53 1021.6
20260509052540 58 1 0.0 7.0 0.00 0.00 0.00 54 1021.6
20260509052039 58 350 0.0 7.0 0.00 0.00 0.00 53 1021.5
20260509051539 58 328 1.0 5.0 0.00 0.00 0.00 53 1021.5
20260509051040 59 350 1.0 5.0 0.00 0.00 0.00 52 1021.4
20260509050540 59 2 0.0 5.0 0.00 0.00 0.00 52 1021.3
20260509050037 59 354 0.0 5.0 0.00 0.00 0.00 52 1021.3
20260509045537 59 352 1.0 6.0 0.00 0.00 0.00 51 1021.3
20260509045038 59 350 1.0 10.0 0.00 0.00 0.00 51 1021.4
20260509044537 59 335 2.0 10.0 0.00 0.00 0.00 51 1021.3
20260509044037 59 343 1.0 9.0 0.00 0.00 0.00 50 1021.3
20260509043540 60 2 2.0 13.0 0.00 0.00 0.00 50 1021.3
20260509043036 59 339 2.0 7.0 0.00 0.00 0.00 51 1021.3
20260509042536 59 321 3.0 9.0 0.00 0.00 0.00 50 1021.3
20260509042036 60 360 2.0 6.0 0.00 0.00 0.00 50 1021.2
20260509041535 60 338 2.0 9.0 0.00 0.00 0.00 50 1021.2
20260509041034 60 191 2.0 9.0 0.00 0.00 0.00 50 1021.1
20260509040534 59 347 3.0 6.0 0.00 0.00 0.00 50 1021.1
20260509040040 59 360 1.0 8.0 0.00 0.00 0.00 50 1021.0
20260509035534 60 280 1.0 8.0 0.00 0.00 0.00 50 1021.0
20260509035032 59 27 1.0 5.0 0.00 0.00 0.00 51 1020.9
20260509034535 59 340 0.0 8.0 0.00 0.00 0.00 50 1020.8
20260509034030 60 359 2.0 8.0 0.00 0.00 0.00 49 1020.7
20260509033531 60 17 1.0 7.0 0.00 0.00 0.00 49 1020.6
20260509033030 60 358 1.0 10.0 0.00 0.00 0.00 48 1020.6
20260509032530 60 350 2.0 8.0 0.00 0.00 0.00 48 1020.5
20260509032029 60 337 0.0 8.0 0.00 0.00 0.00 48 1020.5
20260509031530 60 353 2.0 8.0 0.00 0.00 0.00 49 1020.5
20260509031028 60 357 0.0 9.0 0.00 0.00 0.00 49 1020.4
20260509030528 61 349 3.0 9.0 0.00 0.00 0.00 47 1020.3
20260509030027 61 346 1.0 11.0 0.00 0.00 0.00 47 1020.3
20260509025527 61 191 1.0 11.0 0.00 0.00 0.00 46 1020.2
20260509025026 61 265 0.0 11.0 0.00 0.00 0.00 46 1020.1
20260509024526 61 191 2.0 8.0 0.00 0.00 0.00 46 1020.1
20260509024029 61 16 1.0 11.0 0.00 0.00 0.00 47 1020.0
20260509023527 61 191 1.0 7.0 0.00 0.00 0.00 46 1020.0
20260509023026 61 273 1.0 10.0 0.00 0.00 0.00 45 1019.9
20260509022527 61 246 2.0 10.0 0.00 0.00 0.00 47 1019.8
20260509022024 62 325 3.0 13.0 0.00 0.00 0.00 45 1019.8
20260509021524 62 277 5.0 13.0 0.00 0.00 0.00 46 1019.8
20260509021023 62 224 5.0 11.0 0.00 0.00 0.00 45 1019.8
20260509020524 62 251 1.0 18.0 0.00 0.00 0.00 46 1019.8
20260509020023 62 191 5.0 18.0 0.00 0.00 0.00 45 1019.8
20260509015523 62 242 6.0 14.0 0.00 0.00 0.00 45 1019.7
20260509015023 62 258 4.0 14.0 0.00 0.00 0.00 45 1019.7
20260509014535 62 267 5.0 12.0 0.00 0.00 0.00 43 1019.7
20260509014022 62 262 5.0 17.0 0.00 0.00 0.00 45 1019.6
20260509013522 62 256 8.0 17.0 0.00 0.00 0.00 45 1019.7
20260509013023 63 316 5.0 15.0 0.00 0.00 0.00 44 1019.6
20260509012521 63 250 5.0 14.0 0.00 0.00 0.00 42 1019.7
20260509012021 63 191 6.0 13.0 0.00 0.00 0.00 43 1019.6
20260509011520 63 191 7.0 15.0 0.00 0.00 0.00 43 1019.6
20260509011020 63 191 8.0 19.0 0.00 0.00 0.00 42 1019.5
20260509010520 63 244 8.0 18.0 0.00 0.00 0.00 43 1019.5
20260509010020 63 243 6.0 18.0 0.00 0.00 0.00 42 1019.5
20260509005519 63 261 7.0 19.0 0.00 0.00 0.00 41 1019.4
20260509005019 63 280 11.0 19.0 0.00 0.00 0.00 43 1019.4
20260509004519 63 269 10.0 21.0 0.00 0.00 0.00 41 1019.4
20260509004019 64 242 6.0 17.0 0.00 0.00 0.00 41 1019.4
20260509003520 64 244 12.0 19.0 0.00 0.00 0.00 41 1019.3
20260509003020 64 191 9.0 23.0 0.00 0.00 0.00 40 1019.3
20260509002519 64 262 10.0 23.0 0.00 0.00 0.00 39 1019.4
20260509002019 64 256 9.0 21.0 0.00 0.00 0.00 39 1019.3
20260509001522 64 248 10.0 18.0 0.00 0.00 0.00 38 1019.3
20260509001019 65 255 7.0 18.0 0.00 0.00 0.00 38 1019.2
20260509000520 65 191 8.0 18.0 0.00 0.00 0.00 37 1019.2
20260509000018 65 264 9.0 22.0 0.00 0.00 0.00 37 1019.1
20260508235518 66 302 7.0 22.0 0.00 0.00 0.00 36 1019.2
20260508235019 65 239 8.0 21.0 0.00 0.00 0.00 36 1019.2
20260508234518 65 269 8.0 22.0 0.00 0.00 0.00 35 1019.3
20260508234018 66 237 9.0 22.0 0.00 0.00 0.00 34 1019.1
20260508233519 66 251 8.0 22.0 0.00 0.00 0.00 34 1019.3
20260508233018 66 265 7.0 19.0 0.00 0.00 0.00 33 1019.3
20260508232517 66 273 8.0 19.0 0.00 0.00 0.00 33 1019.2
20260508232017 66 266 7.0 22.0 0.00 0.00 0.00 32 1019.1
20260508231517 67 262 8.0 22.0 0.00 0.00 0.00 32 1019.2
20260508231017 67 217 7.0 17.0 0.00 0.00 0.00 32 1019.1
20260508230516 67 191 9.0 16.0 0.00 0.00 0.00 34 1019.2
20260508230017 67 191 7.0 19.0 0.00 0.00 0.00 34 1019.1
20260508225517 67 234 8.0 16.0 0.00 0.00 0.00 31 1019.1
20260508225019 67 273 9.0 18.0 0.00 0.00 0.00 33 1019.2
20260508224517 67 241 9.0 24.0 0.00 0.00 0.00 33 1019.2
20260508224016 67 258 7.0 24.0 0.00 0.00 0.00 33 1019.2